GW0353 Weather Reports


time (UTC)temp
C
wind
direction
speed
KPH
gust
KPH
rain 1hr
cm
rain 24hr
cm
rain mn
cm
humidity
%
barometer
mb
20260831014623 21 0 0.0 1.6 0.00 0.00 0.00 30 1021.5
20260831014058 22 0 0.0 1.6 0.00 0.00 0.00 29 1021.5
20260831013558 22 0 0.0 4.8 0.00 0.00 0.00 23 1021.5
20260831013109 22 0 0.0 8.0 0.00 0.00 0.00 23 1021.5
20260831012558 22 0 3.2 8.0 0.00 0.00 0.00 23 1021.5
20260831012058 22 159 1.6 8.0 0.00 0.00 0.00 23 1021.6
20260831011609 23 243 1.6 8.0 0.00 0.00 0.00 23 1021.5
20260831011057 23 144 1.6 8.0 0.00 0.00 0.00 23 1021.7
20260831010601 23 163 4.8 9.7 0.00 0.00 0.00 23 1021.7
20260831010109 23 0 4.8 11.3 0.00 0.00 0.00 23 1021.6
20260831005557 22 152 3.2 11.3 0.00 0.00 0.00 23 1021.7
20260831005058 22 161 4.8 11.3 0.00 0.00 0.00 23 1021.7
20260831004627 22 184 4.8 11.3 0.00 0.00 0.00 24 1021.7
20260831004056 22 162 6.4 9.7 0.00 0.00 0.00 24 1021.7
20260831003600 22 148 4.8 8.0 0.00 0.00 0.00 24 1021.8
20260831003112 22 148 4.8 8.0 0.00 0.00 0.00 24 1021.7
20260831002557 22 120 1.6 9.7 0.00 0.00 0.00 24 1021.6
20260831002100 22 135 3.2 11.3 0.00 0.00 0.00 24 1021.8
20260831001633 22 124 4.8 11.3 0.00 0.00 0.00 24 1021.8
20260831001058 22 117 4.8 11.3 0.00 0.00 0.00 24 1021.7
20260831000558 22 155 6.4 16.1 0.00 0.00 0.00 23 1021.8
20260831000115 22 89 8.0 16.1 0.00 0.00 0.00 23 1021.7
20260830235559 22 138 9.7 16.1 0.00 0.00 0.00 23 1021.8
20260830235100 23 164 4.8 11.3 0.00 0.00 0.00 23 1021.9
20260830234613 23 133 3.2 11.3 0.00 0.00 0.00 23 1021.7
20260830234058 23 174 3.2 11.3 0.00 0.00 0.00 22 1021.8
20260830233558 23 143 6.4 11.3 0.00 0.00 0.00 22 1021.8
20260830233132 23 120 4.8 11.3 0.00 0.00 0.00 23 1021.8
20260830232558 23 155 1.6 11.3 0.00 0.00 0.00 21 1022.0
20260830232058 23 87 6.4 11.3 0.00 0.00 0.00 21 1021.9
20260830231614 23 159 3.2 12.9 0.00 0.00 0.00 22 1022.0
20260830231101 23 125 4.8 14.5 0.00 0.00 0.00 21 1021.9
20260830230559 23 139 1.6 20.9 0.00 0.00 0.00 22 1022.0
20260830230133 24 136 8.0 20.9 0.00 0.00 0.00 21 1022.0
20260830225557 24 130 4.8 14.5 0.00 0.00 0.00 22 1022.2
20260830225058 24 282 1.6 17.7 0.00 0.00 0.00 20 1022.2
20260830224615 23 63 4.8 17.7 0.00 0.00 0.00 21 1022.2
20260830224058 24 54 4.8 17.7 0.00 0.00 0.00 21 1022.3
20260830223558 23 101 0.0 16.1 0.00 0.00 0.00 22 1022.4
20260830223112 23 68 9.7 16.1 0.00 0.00 0.00 19 1022.4
20260830222558 23 61 6.4 16.1 0.00 0.00 0.00 21 1022.4
20260830222059 23 41 0.0 20.9 0.00 0.00 0.00 21 1022.6
20260830221607 23 42 6.4 20.9 0.00 0.00 0.00 20 1022.5
20260830221058 23 85 8.0 20.9 0.00 0.00 0.00 21 1022.6
20260830220558 23 107 11.3 20.9 0.00 0.00 0.00 20 1022.6
20260830220107 23 162 6.4 16.1 0.00 0.00 0.00 20 1022.6
20260830215557 24 149 6.4 22.5 0.00 0.00 0.00 21 1022.7
20260830215057 24 113 3.2 22.5 0.00 0.00 0.00 21 1022.8
20260830214607 24 77 8.0 19.3 0.00 0.00 0.00 21 1022.8
20260830214059 24 63 8.0 20.9 0.00 0.00 0.00 21 1022.7
20260830213558 24 174 9.7 24.1 0.00 0.00 0.00 20 1022.8
20260830213103 23 203 9.7 24.1 0.00 0.00 0.00 20 1022.9
20260830212558 23 25 11.3 24.1 0.00 0.00 0.00 21 1022.9
20260830212058 23 55 9.7 19.3 0.00 0.00 0.00 22 1022.9
20260830211605 23 126 8.0 22.5 0.00 0.00 0.00 21 1022.9
20260830211057 23 94 9.7 22.5 0.00 0.00 0.00 21 1023.0
20260830210558 23 84 8.0 19.3 0.00 0.00 0.00 22 1022.9
20260830210109 23 134 8.0 19.3 0.00 0.00 0.00 22 1023.1
20260830205557 23 87 8.0 27.4 0.00 0.00 0.00 21 1023.1
20260830205058 23 120 9.7 27.4 0.00 0.00 0.00 21 1023.1
20260830204606 23 139 12.9 27.4 0.00 0.00 0.00 22 1023.1
20260830204058 23 70 6.4 19.3 0.00 0.00 0.00 22 1023.1
20260830203558 23 117 8.0 19.3 0.00 0.00 0.00 22 1023.3
20260830203110 23 139 9.7 17.7 0.00 0.00 0.00 23 1023.3
20260830202601 23 186 4.8 22.5 0.00 0.00 0.00 23 1023.2
20260830202058 23 108 6.4 22.5 0.00 0.00 0.00 23 1023.3
20260830201609 23 53 8.0 17.7 0.00 0.00 0.00 22 1023.5
20260830201057 23 77 6.4 25.7 0.00 0.00 0.00 23 1023.6
20260830200558 22 136 6.4 25.7 0.00 0.00 0.00 24 1023.5
20260830200106 22 129 8.0 24.1 0.00 0.00 0.00 22 1023.5
20260830195557 22 68 9.7 25.7 0.00 0.00 0.00 23 1023.7
20260830195058 22 189 9.7 25.7 0.00 0.00 0.00 24 1023.6
20260830194616 22 110 8.0 22.5 0.00 0.00 0.00 24 1023.8
20260830194058 22 169 9.7 27.4 0.00 0.00 0.00 23 1023.7
20260830193601 22 172 11.3 27.4 0.00 0.00 0.00 22 1023.7
20260830193109 23 167 6.4 22.5 0.00 0.00 0.00 22 1023.7
20260830192559 22 113 4.8 19.3 0.00 0.00 0.00 24 1023.7
20260830192058 22 77 8.0 19.3 0.00 0.00 0.00 24 1023.8
20260830191610 22 118 4.8 19.3 0.00 0.00 0.00 24 1023.8
20260830191057 22 110 8.0 27.4 0.00 0.00 0.00 22 1023.9
20260830190559 22 108 9.7 27.4 0.00 0.00 0.00 24 1023.9
20260830190106 22 75 8.0 27.4 0.00 0.00 0.00 22 1023.9
20260830185602 22 81 8.0 22.5 0.00 0.00 0.00 23 1024.0
20260830185057 22 125 6.4 27.4 0.00 0.00 0.00 23 1024.0
20260830184602 22 58 4.8 27.4 0.00 0.00 0.00 22 1024.1
20260830184057 23 52 8.0 27.4 0.00 0.00 0.00 22 1024.0
20260830183600 23 273 1.6 11.3 0.00 0.00 0.00 23 1024.1
20260830183110 23 6 1.6 9.7 0.00 0.00 0.00 24 1024.1
20260830182600 23 0 1.6 9.7 0.00 0.00 0.00 23 1024.2
20260830182058 23 274 3.2 9.7 0.00 0.00 0.00 23 1024.2
20260830181606 22 266 1.6 11.3 0.00 0.00 0.00 24 1024.4
20260830181059 22 36 1.6 11.3 0.00 0.00 0.00 23 1024.4
20260830180558 22 288 4.8 11.3 0.00 0.00 0.00 23 1024.4
20260830180109 22 217 1.6 6.4 0.00 0.00 0.00 22 1024.6
20260830175558 21 295 1.6 8.0 0.00 0.00 0.00 23 1024.5
20260830175058 22 56 1.6 8.0 0.00 0.00 0.00 23 1024.4
20260830174617 22 29 0.0 6.4 0.00 0.00 0.00 24 1024.6
20260830174101 21 0 1.6 6.4 0.00 0.00 0.00 23 1024.6
20260830173559 20 39 3.2 6.4 0.00 0.00 0.00 24 1024.7
20260830173107 20 56 0.0 6.4 0.00 0.00 0.00 23 1024.6
20260830172558 20 61 3.2 4.8 0.00 0.00 0.00 25 1024.6
20260830172058 20 88 0.0 6.4 0.00 0.00 0.00 25 1024.6
20260830171609 19 316 1.6 6.4 0.00 0.00 0.00 26 1024.7
20260830171102 19 44 0.0 4.8 0.00 0.00 0.00 29 1024.7
20260830170557 18 306 1.6 6.4 0.00 0.00 0.00 30 1024.6
20260830170108 18 0 3.2 6.4 0.00 0.00 0.00 30 1024.6
20260830165600 18 77 1.6 6.4 0.00 0.00 0.00 31 1024.5
20260830165058 18 52 0.0 4.8 0.00 0.00 0.00 36 1024.6
20260830164605 17 32 1.6 4.8 0.00 0.00 0.00 34 1024.6
20260830164058 17 0 0.0 3.2 0.00 0.00 0.00 39 1024.6
20260830163558 17 130 0.0 4.8 0.00 0.00 0.00 42 1024.6
20260830163108 16 113 0.0 4.8 0.00 0.00 0.00 45 1024.6
20260830162600 16 113 3.2 4.8 0.00 0.00 0.00 43 1024.7
20260830162100 16 95 1.6 3.2 0.00 0.00 0.00 43 1024.6
20260830161607 16 27 0.0 4.8 0.00 0.00 0.00 45 1024.6
20260830161102 15 319 0.0 6.4 0.00 0.00 0.00 49 1024.6
20260830160601 15 58 1.6 6.4 0.00 0.00 0.00 56 1024.6
20260830160115 15 46 1.6 4.8 0.00 0.00 0.00 55 1024.5
20260830155558 14 70 1.6 3.2 0.00 0.00 0.00 56 1024.5
20260830155058 13 108 0.0 3.2 0.00 0.00 0.00 57 1024.5
20260830154606 13 82 3.2 3.2 0.00 0.00 0.00 60 1024.5
20260830154102 12 94 0.0 4.8 0.00 0.00 0.00 67 1024.6
20260830153557 12 0 1.6 4.8 0.00 0.00 0.00 70 1024.7
20260830153108 12 61 3.2 4.8 0.00 0.00 0.00 71 1024.8
20260830152557 12 49 0.0 3.2 0.00 0.00 0.00 72 1024.9
20260830152058 11 0 0.0 1.6 0.00 0.00 0.00 73 1024.9
20260830151605 11 73 0.0 1.6 0.00 0.00 0.00 75 1024.9
20260830151058 11 58 0.0 1.6 0.00 0.00 0.00 76 1025.0
20260830150602 10 0 0.0 1.6 0.00 0.00 0.00 75 1024.9
20260830150121 10 0 0.0 1.6 0.00 0.00 0.00 76 1024.9
20260830145559 10 0 0.0 1.6 0.00 0.00 0.00 76 1025.0
20260830145058 10 6 0.0 0.0 0.00 0.00 0.00 77 1025.1
20260830144609 9 0 0.0 1.6 0.00 0.00 0.00 78 1024.9
20260830144058 8 0 0.0 1.6 0.00 0.00 0.00 78 1024.8
20260830143558 8 0 0.0 3.2 0.00 0.00 0.00 78 1024.7
20260830143107 7 0 0.0 4.8 0.00 0.00 0.00 83 1024.6
20260830142558 5 0 1.6 4.8 0.00 0.00 0.00 80 1024.7
20260830142058 5 193 1.6 4.8 0.00 0.00 0.00 83 1024.7
20260830141606 4 171 0.0 0.0 0.00 0.00 0.00 83 1024.7
20260830141058 4 0 0.0 1.6 0.00 0.00 0.00 78 1024.6
20260830140558 4 0 0.0 3.2 0.00 0.00 0.00 78 1024.4
20260830140105 4 181 0.0 3.2 0.00 0.00 0.00 82 1024.4
20260830135558 3 172 0.0 1.6 0.00 0.00 0.00 78 1024.5
20260830135102 4 0 0.0 0.0 0.00 0.00 0.00 76 1024.3
20260830134608 4 0 0.0 0.0 0.00 0.00 0.00 76 1024.3
20260830134057 4 0 0.0 1.6 0.00 0.00 0.00 78 1024.1
20260830133557 4 0 0.0 1.6 0.00 0.00 0.00 78 1024.2
20260830133108 4 194 0.0 1.6 0.00 0.00 0.00 77 1024.0
20260830132557 4 0 0.0 1.6 0.00 0.00 0.00 77 1023.8
20260830132058 4 0 0.0 4.8 0.00 0.00 0.00 78 1023.7
20260830131626 4 0 0.0 4.8 0.00 0.00 0.00 77 1023.7
20260830131058 4 179 3.2 4.8 0.00 0.00 0.00 77 1023.6
20260830130559 4 0 0.0 0.0 0.00 0.00 0.00 80 1023.7
20260830130109 4 0 0.0 0.0 0.00 0.00 0.00 80 1023.6
20260830125600 5 0 0.0 1.6 0.00 0.00 0.00 81 1023.6
20260830125058 5 0 0.0 1.6 0.00 0.00 0.00 79 1023.6
20260830124605 5 0 0.0 1.6 0.00 0.00 0.00 78 1023.6
20260830124058 5 0 0.0 1.6 0.00 0.00 0.00 78 1023.5
20260830123600 5 0 0.0 6.4 0.00 0.00 0.00 79 1023.5
20260830123109 5 0 0.0 6.4 0.00 0.00 0.00 79 1023.4
20260830122558 5 174 1.6 4.8 0.00 0.00 0.00 76 1023.5
20260830122058 5 0 0.0 3.2 0.00 0.00 0.00 78 1023.6
20260830121607 6 0 0.0 3.2 0.00 0.00 0.00 78 1023.6
20260830121058 5 183 0.0 3.2 0.00 0.00 0.00 81 1023.7
20260830120558 5 188 1.6 3.2 0.00 0.00 0.00 77 1023.7
20260830120107 5 0 0.0 1.6 0.00 0.00 0.00 77 1023.7
20260830115558 5 183 0.0 1.6 0.00 0.00 0.00 75 1023.7
20260830115058 6 0 0.0 1.6 0.00 0.00 0.00 78 1023.7
20260830114614 6 0 0.0 1.6 0.00 0.00 0.00 81 1023.7
20260830114057 6 0 0.0 1.6 0.00 0.00 0.00 77 1023.6
20260830113557 6 0 0.0 1.6 0.00 0.00 0.00 71 1023.7
20260830113108 6 0 0.0 1.6 0.00 0.00 0.00 71 1023.7
20260830112557 6 0 0.0 1.6 0.00 0.00 0.00 74 1023.8
20260830112058 6 0 0.0 1.6 0.00 0.00 0.00 71 1024.0
20260830111606 6 0 0.0 0.0 0.00 0.00 0.00 70 1023.9
20260830111059 6 0 0.0 1.6 0.00 0.00 0.00 72 1024.0
20260830110600 6 0 0.0 3.2 0.00 0.00 0.00 72 1023.9
20260830110104 6 0 0.0 3.2 0.00 0.00 0.00 72 1023.9
20260830105558 6 210 0.0 1.6 0.00 0.00 0.00 73 1024.0
20260830105058 6 0 0.0 1.6 0.00 0.00 0.00 72 1024.0
20260830104606 6 162 0.0 1.6 0.00 0.00 0.00 71 1023.8
20260830104058 7 0 0.0 1.6 0.00 0.00 0.00 74 1023.8
20260830103558 7 0 0.0 3.2 0.00 0.00 0.00 74 1023.8
20260830103108 6 203 0.0 3.2 0.00 0.00 0.00 72 1023.9
20260830102557 6 190 1.6 3.2 0.00 0.00 0.00 72 1023.8
20260830102058 6 0 0.0 3.2 0.00 0.00 0.00 72 1023.8
20260830101607 6 0 0.0 0.0 0.00 0.00 0.00 75 1023.7
20260830101058 7 0 0.0 0.0 0.00 0.00 0.00 73 1023.7
20260830100558 7 0 0.0 1.6 0.00 0.00 0.00 76 1023.7
20260830100105 7 0 0.0 1.6 0.00 0.00 0.00 74 1023.6
20260830095600 7 210 0.0 0.0 0.00 0.00 0.00 75 1023.8
20260830095058 7 0 0.0 0.0 0.00 0.00 0.00 73 1023.8
20260830094607 7 0 0.0 3.2 0.00 0.00 0.00 73 1023.7
20260830094057 7 0 0.0 4.8 0.00 0.00 0.00 73 1023.7
20260830093557 7 0 0.0 4.8 0.00 0.00 0.00 73 1023.7
20260830093107 7 191 0.0 1.6 0.00 0.00 0.00 72 1023.8
20260830092558 8 0 0.0 1.6 0.00 0.00 0.00 71 1023.8
20260830092058 8 0 0.0 3.2 0.00 0.00 0.00 72 1023.9
20260830091607 7 0 1.6 3.2 0.00 0.00 0.00 73 1024.0
20260830091058 7 175 0.0 3.2 0.00 0.00 0.00 73 1024.0
20260830090558 7 0 0.0 1.6 0.00 0.00 0.00 74 1024.0
20260830090113 7 189 0.0 1.6 0.00 0.00 0.00 72 1024.0
20260830085558 7 0 0.0 1.6 0.00 0.00 0.00 71 1023.9
20260830085057 8 0 0.0 1.6 0.00 0.00 0.00 72 1023.8
20260830084604 7 257 0.0 4.8 0.00 0.00 0.00 73 1023.9
20260830084104 7 0 0.0 4.8 0.00 0.00 0.00 73 1024.1
20260830083558 7 167 0.0 3.2 0.00 0.00 0.00 70 1024.0
20260830083109 8 0 0.0 3.2 0.00 0.00 0.00 72 1024.1
20260830082559 7 0 0.0 4.8 0.00 0.00 0.00 70 1024.1
20260830082058 7 0 0.0 4.8 0.00 0.00 0.00 71 1024.2
20260830081606 7 193 0.0 1.6 0.00 0.00 0.00 70 1024.1
20260830081057 8 0 0.0 0.0 0.00 0.00 0.00 69 1024.0
20260830080555 8 0 0.0 0.0 0.00 0.00 0.00 70 1024.1
20260830080105 8 0 0.0 3.2 0.00 0.00 0.00 70 1024.1
20260830075556 8 0 0.0 3.2 0.00 0.00 0.00 70 1024.2
20260830075059 8 0 0.0 3.2 0.00 0.00 0.00 70 1024.3
20260830074606 8 167 0.0 1.6 0.00 0.00 0.00 70 1024.4
20260830074058 8 0 0.0 4.8 0.00 0.00 0.00 70 1024.5
20260830073558 8 0 1.6 4.8 0.00 0.00 0.00 68 1024.5
20260830073107 10 163 0.0 3.2 0.00 0.00 0.00 69 1024.7
20260830072558 10 0 0.0 1.6 0.00 0.00 0.00 72 1024.7
20260830072058 10 0 0.0 3.2 0.00 0.00 0.00 71 1024.6
20260830071605 10 0 0.0 3.2 0.00 0.00 0.00 70 1024.5
20260830071057 10 0 0.0 3.2 0.00 0.00 0.00 69 1024.3
20260830070558 10 0 0.0 1.6 0.00 0.00 0.00 68 1024.4
20260830070114 10 0 0.0 3.2 0.00 0.00 0.00 68 1024.4
20260830065558 10 182 1.6 3.2 0.00 0.00 0.00 68 1024.3
20260830065058 10 0 0.0 0.0 0.00 0.00 0.00 67 1024.3
20260830064612 11 0 0.0 1.6 0.00 0.00 0.00 68 1024.3
20260830064058 11 0 0.0 1.6 0.00 0.00 0.00 66 1024.4
20260830063558 11 0 0.0 1.6 0.00 0.00 0.00 66 1024.5
20260830063114 11 0 0.0 1.6 0.00 0.00 0.00 65 1024.6
20260830062557 12 143 0.0 4.8 0.00 0.00 0.00 65 1024.5
20260830062058 12 0 0.0 6.4 0.00 0.00 0.00 64 1024.5
20260830061612 12 67 1.6 6.4 0.00 0.00 0.00 63 1024.5
20260830061100 12 0 0.0 1.6 0.00 0.00 0.00 62 1024.6
20260830060558 12 0 0.0 3.2 0.00 0.00 0.00 62 1024.6
20260830060108 12 0 0.0 3.2 0.00 0.00 0.00 61 1024.7
20260830055554 13 124 0.0 1.6 0.00 0.00 0.00 60 1024.7
20260830055058 13 0 0.0 3.2 0.00 0.00 0.00 59 1024.7
20260830054605 13 167 0.0 3.2 0.00 0.00 0.00 58 1024.7
20260830054057 13 0 0.0 3.2 0.00 0.00 0.00 60 1024.8
20260830053557 13 0 0.0 4.8 0.00 0.00 0.00 58 1024.8
20260830053106 13 0 0.0 9.7 0.00 0.00 0.00 58 1024.9
20260830052557 13 0 0.0 9.7 0.00 0.00 0.00 58 1024.8
20260830052055 13 134 4.8 8.0 0.00 0.00 0.00 59 1024.9
20260830051615 13 224 1.6 4.8 0.00 0.00 0.00 58 1024.9
20260830051057 13 262 1.6 4.8 0.00 0.00 0.00 57 1024.9
20260830050558 13 119 0.0 3.2 0.00 0.00 0.00 57 1024.9
20260830050107 13 150 0.0 3.2 0.00 0.00 0.00 57 1024.8
20260830045557 14 136 0.0 3.2 0.00 0.00 0.00 56 1024.9
20260830045058 14 0 0.0 4.8 0.00 0.00 0.00 55 1024.8
20260830044609 15 154 0.0 9.7 0.00 0.00 0.00 54 1024.7
20260830044058 15 0 3.2 9.7 0.00 0.00 0.00 54 1024.8
20260830043558 15 82 4.8 14.5 0.00 0.00 0.00 54 1024.6
20260830043103 15 134 9.7 14.5 0.00 0.00 0.00 53 1024.6
20260830042558 15 89 0.0 17.7 0.00 0.00 0.00 53 1024.6
20260830042058 15 0 1.6 17.7 0.00 0.00 0.00 54 1024.5
20260830041058 15 50 12.9 19.3 0.00 0.00 0.00 55 1024.3
20260830040600 15 52 8.0 17.7 0.00 0.00 0.00 53 1024.3
20260830040111 15 135 1.6 9.7 0.00 0.00 0.00 48 1024.2
20260830035559 15 186 0.0 12.9 0.00 0.05 0.00 42 1024.1
20260830035059 15 76 4.8 12.9 0.00 0.05 0.00 43 1024.1
20260830034622 15 0 0.0 3.2 0.00 0.05 0.00 42 1023.9
20260830034057 15 225 1.6 4.8 0.00 0.05 0.00 42 1024.0
20260830033557 16 172 0.0 4.8 0.00 0.05 0.00 41 1023.8
20260830033105 16 160 0.0 12.9 0.00 0.05 0.00 41 1023.7
20260830032601 17 0 0.0 12.9 0.00 0.05 0.00 40 1023.6
20260830032058 17 270 0.0 4.8 0.00 0.05 0.00 40 1023.6
20260830031606 17 0 0.0 6.4 0.00 0.05 0.00 40 1023.5
20260830031058 17 238 1.6 6.4 0.00 0.05 0.00 39 1023.3
20260830030557 17 0 1.6 12.9 0.00 0.05 0.00 39 1023.3
20260830030105 17 227 1.6 12.9 0.00 0.05 0.00 41 1023.4
20260830025559 18 111 1.6 12.9 0.00 0.05 0.00 39 1023.4
20260830025058 18 139 0.0 11.3 0.00 0.05 0.00 37 1023.2
20260830024604 18 224 3.2 12.9 0.00 0.05 0.00 40 1023.3
20260830024058 18 234 0.0 19.3 0.00 0.05 0.00 39 1023.3
20260830023602 18 189 4.8 22.5 0.00 0.05 0.00 39 1023.2
20260830023106 18 133 8.0 22.5 0.00 0.05 0.00 39 1023.3
20260830022558 18 262 6.4 19.3 0.00 0.05 0.00 40 1023.2
20260830022058 18 280 8.0 19.3 0.00 0.05 0.00 40 1023.3
20260830021611 18 134 6.4 19.3 0.00 0.05 0.00 41 1023.3
20260830021058 18 239 8.0 20.9 0.00 0.05 0.00 40 1023.4
20260830020558 18 168 8.0 20.9 0.00 0.05 0.00 40 1023.5
20260830020111 18 187 8.0 19.3 0.00 0.05 0.00 40 1023.4
20260830015559 19 190 6.4 14.5 0.00 0.10 0.00 40 1023.4
20260830015059 19 0 4.8 14.5 0.00 0.10 0.00 39 1023.4